RH
100 85 96 100 100 94 44 30 22 27 26 30 32 50 57 37 75 97 81 62 66 71 75 56 72 100 100 100 100 100 76 52 52 59 48 38 61 69 58 48 30 25 21 18 16 15 14 12 10
100 100 98 92 100 100 51 40 30 37 36 37 34 50 62 41 55 59 64 57 70 73 50 52 65 96 100 100 100 100 76 43 73 52 40 54 81 59 59 36 30 30 24 19 17 17 14 12 12
100 100 100 100 100 87 63 48 34 47 46 35 36 38 60 38 42 65 67 55 57 54 50 57 88 84 100 100 100 100 73 53 75 47 39 67 94 79 58 38 33 39 30 22 18 18 16 15 13
73 100 100 100 100 97 44 25 36 50 39 39 40 43 49 43 45 52 59 57 58 51 46 56 80 100 100 100 95 77 55 73 71 50 64 100 98 72 65 44 41 38 31 21 20 20 19 17 15
65 60 61 100 98 81 40 31 45 42 34 44 36 38 43 58 49 55 57 57 48 51 44 50 70 95 100 85 84 92 57 70 66 64 76 100 86 73 44 46 37 41 28 22 24 26 24 22 18
78 69 88 100 92 72 59 44 51 39 40 53 40 37 36 58 51 49 67 62 44 51 48 51 80 100 100 73 71 81 69 78 64 77 100 99 82 56 39 46 36 38 27 22 25 26 24 22 20
99 98 100 100 100 99 78 63 56 42 43 48 39 42 57 47 44 48 75 72 45 56 53 69 89 100 100 95 88 69 56 100 78 94 100 99 95 47 46 42 37 39 28 20 21 25 25 24 21
100 100 100 100 100 100 91 65 58 51 50 41 35 48 53 42 51 55 71 51 46 61 67 92 100 100 100 94 72 86 70 100 92 100 100 100 85 50 39 39 42 47 34 24 23 25 28 29 27
97 90 98 100 100 100 93 81 74 56 51 47 33 49 57 48 68 61 50 45 63 59 50 52 60 98 86 84 67 87 93 100 93 100 100 100 70 45 40 37 39 49 45 30 26 27 30 34 30
92 88 99 97 100 96 94 66 78 42 50 58 30 67 63 61 75 60 48 51 69 61 53 49 83 86 78 62 59 60 86 100 97 100 100 95 66 35 47 45 46 48 42 47 30 28 27 34 37
89 94 100 94 94 93 83 68 56 54 70 28 52 58 52 67 70 57 46 68 75 61 48 50 100 83 64 53 38 76 99 100 100 100 76 87 61 39 51 66 57 63 50 40 44 34 29 29 29
100 96 96 80 69 77 50 58 52 35 63 27 52 46 67 73 51 44 46 65 86 84 67 50 56 72 56 56 49 81 100 100 100 100 91 96 70 59 64 71 79 86 76 66 53 46 38 35 32
100 83 72 49 45 52 54 58 46 94 34 47 51 44 64 68 43 41 43 67 89 92 71 54 48 60 56 56 95 86 97 100 100 100 96 100 100 86 84 84 97 100 100 92 67 65 67 59 45
74 60 66 43 59 89 76 58 53 100 54 73 53 50 62 72 55 56 79 96 91 72 67 54 54 50 62 56 52 80 81 83 93 98 100 100 99 87 74 90 100 100 100 95 74 65 79 95 93
73 98 86 74 68 100 73 49 99 100 56 73 61 55 68 100 76 75 86 72 81 89 84 98 69 59 52 57 64 55 52 49 61 66 76 90 90 72 78 100 100 100 100 100 85 61 63 72 74
97 100 100 80 59 98 84 76 100 100 58 53 55 55 55 71 100 99 100 96 81 76 76 64 74 80 81 89 68 64 48 36 42 31 34 41 46 56 77 87 100 100 100 100 100 63 32 41 67
100 100 85 88 82 100 99 83 92 100 91 62 72 79 89 91 83 100 100 100 72 59 52 58 57 62 62 56 52 52 43 32 38 55 54 62 70 62 69 88 100 99 100 100 88 57 32 43 76
100 100 100 87 77 85 100 89 95 100 100 71 51 77 100 95 92 79 80 100 59 56 58 70 73 89 74 51 61 73 64 54 54 42 36 28 47 56 66 80 100 89 99 73 61 48 31 34 54
100 100 100 100 74 72 87 99 70 100 100 100 100 90 87 100 74 65 68 81 84 74 80 98 92 84 80 83 97 100 98 75 52 32 21 26 46 86 90 100 88 78 75 67 50 41 35 46 63
60 82 100 95 92 67 84 84 96 89 100 99 100 100 100 100 100 100 100 100 100 100 100 97 96 82 80 78 88 76 79 61 59 64 71 77 78 91 92 88 85 94 93 93 61 71 61 62 92
47 56 92 74 73 82 66 70 86 100 77 100 92 90 83 68 100 100 99 100 100 100 100 100 96 70 79 94 78 84 100 100 100 100 100 100 92 71 65 76 83 68 62 67 86 100 70 81 100
100 91 58 52 60 67 85 42 87 90 95 72 100 80 99 98 80 86 100 100 100 100 100 100 100 97 96 78 76 74 70 88 100 100 98 95 98 100 100 96 89 98 93 82 65 60 69 90 78
88 100 84 64 62 60 46 54 66 90 89 95 100 100 85 88 100 64 60 73 100 100 100 100 100 100 100 96 94 91 81 69 62 57 62 63 70 78 94 94 88 78 96 100 93 87 98 100 94
100 100 100 92 50 45 31 61 42 56 86 98 95 97 100 74 92 92 80 72 71 74 78 76 98 100 100 100 100 100 92 100 96 85 74 72 79 88 89 82 80 83 78 78 91 94 81 71 76
62 100 100 94 91 64 45 71 26 57 59 49 59 75 88 92 88 76 88 85 77 73 72 80 92 71 92 95 100 100 100 100 100 99 98 100 99 100 99 99 91 96 96 81 72 75 71 71 72
87 90 100 90 82 70 72 40 33 31 36 45 66 52 68 73 84 99 99 70 90 82 72 67 75 72 93 78 100 100 100 100 100 100 100 100 100 100 100 96 95 86 83 74 73 70 69 82 78
100 98 100 100 100 100 85 81 90 49 32 29 54 94 100 100 100 100 100 100 98 100 97 87 78 69 71 76 81 71 76 91 100 100 100 100 100 100 100 100 98 100 100 98 82 76 69 65 72
97 100 100 100 100 100 100 100 100 96 100 64 53 52 64 99 100 100 100 100 100 100 100 100 100 95 90 84 78 87 81 100 97 97 99 100 100 100 100 100 100 100 93 91 82 71 56 44 46
100 100 100 100 100 100 100 100 96 100 100 100 90 76 63 82 100 99 100 100 100 100 100 100 100 100 100 100 100 100 97 92 100 100 100 99 100 100 87 98 100 91 89 81 73 68 55 57 53
84 100 100 100 100 100 100 100 100 87 100 100 100 100 100 98 98 100 99 100 100 100 100 100 100 100 100 100 100 100 100 100 100 100 96 100 100 100 100 98 92 98 80 71 62 52 62 67 50
Wind_Speed
44 41 41 49 52 56 52 47 41 36 35 37 39 44 47 43 48 51 50 44 44 40 37 36 31 34 32 33 34 32 32 34 31 30 31 30 32 33 32 33 28 24 23 25 25 24 22 25 23
47 48 47 48 54 60 61 55 48 42 37 34 38 46 49 44 46 45 46 43 37 35 33 33 34 36 38 36 34 31 32 30 28 29 28 28 32 32 32 32 29 24 21 24 24 22 23 23 21
48 52 53 54 52 60 63 57 53 48 41 37 40 44 48 45 46 45 45 41 38 33 33 31 30 31 30 30 32 31 31 28 28 27 26 30 32 32 32 30 27 22 23 23 22 23 24 19 19
53 55 58 58 55 60 64 61 56 52 44 41 42 47 48 47 47 47 43 41 36 33 33 30 31 33 35 30 31 32 30 27 26 26 28 32 31 33 34 28 25 22 22 21 22 22 20 18 17
61 59 60 63 61 61 63 64 58 52 47 44 47 47 45 50 48 46 40 38 33 34 34 32 32 35 36 36 33 34 32 28 27 27 29 30 31 33 28 26 25 20 18 19 20 17 17 16 17
66 61 60 60 64 65 65 64 58 55 51 46 51 48 45 49 47 45 38 34 34 34 33 32 31 33 34 35 35 34 31 27 28 28 30 29 31 30 27 26 23 17 16 17 18 17 16 17 15
67 61 65 59 59 65 67 64 59 57 57 48 54 50 48 47 46 39 34 35 35 31 33 30 30 32 33 33 32 34 34 28 29 29 32 32 31 29 28 27 22 17 15 16 18 18 17 18 18
65 67 61 58 64 68 68 61 56 59 56 53 50 50 48 46 41 34 31 32 30 29 29 30 33 32 34 35 33 29 31 27 28 31 33 31 31 28 26 25 22 20 17 16 18 19 18 19 18
67 62 63 68 71 71 68 61 64 58 57 47 49 47 46 43 34 29 30 31 25 26 25 29 34 33 31 31 34 31 26 28 27 31 33 33 30 27 23 23 21 21 19 19 18 18 16 16 17
65 61 63 64 67 66 67 65 64 60 52 48 50 43 43 37 33 34 34 29 23 24 25 27 30 31 28 29 30 31 26 29 29 32 32 32 28 25 22 23 21 21 22 22 21 19 16 16 17
61 59 62 65 67 68 64 69 67 59 44 48 43 41 39 36 36 36 31 27 22 23 25 25 28 31 27 28 26 25 23 29 32 29 27 30 28 28 27 28 27 25 24 24 23 21 18 19 19
63 62 65 65 64 65 67 63 61 48 42 40 35 36 35 35 32 31 29 25 22 24 25 26 27 28 29 27 23 23 24 28 26 28 31 30 32 31 31 32 31 30 28 26 25 24 23 21 22
58 60 58 58 59 65 62 53 47 42 36 33 32 35 35 36 35 31 27 24 25 26 25 25 28 30 29 29 26 26 30 31 31 33 33 32 31 34 36 32 30 33 33 30 27 25 26 26 26
58 56 52 50 55 55 52 43 33 48 31 36 31 36 33 36 34 29 28 29 28 25 23 22 26 28 29 28 29 31 30 30 33 37 39 39 36 35 24 28 30 35 38 33 29 28 30 30 29
56 57 55 52 56 49 46 33 40 50 37 36 32 33 32 35 35 33 33 32 32 30 28 26 27 28 31 33 30 29 30 32 34 35 35 33 33 28 28 30 32 36 40 40 31 27 31 31 31
64 57 49 49 52 48 44 29 45 50 42 39 37 36 37 35 37 38 35 35 37 36 35 34 32 32 32 34 34 34 33 31 33 35 36 35 32 27 26 27 32 36 40 36 32 29 27 28 28
60 59 57 49 53 47 44 33 38 48 42 40 38 36 38 39 39 42 41 41 42 40 37 36 32 34 37 37 37 38 39 40 32 30 31 32 32 31 30 30 31 30 32 34 34 30 28 26 23
65 57 58 52 51 51 49 40 40 46 40 39 38 38 38 39 42 44 46 47 46 43 42 40 39 38 37 37 36 35 35 36 36 37 37 36 35 31 30 29 32 31 32 31 32 31 25 26 27
64 60 56 58 55 52 54 44 42 45 43 44 45 41 41 40 44 40 43 46 48 45 43 42 43 42 41 38 36 35 36 37 38 38 37 38 36 33 32 30 33 33 35 33 31 29 26 23 25
65 63 57 64 65 65 59 45 47 44 45 43 44 46 48 45 45 46 46 47 46 48 50 50 49 49 45 44 43 41 40 40 39 37 41 39 39 34 33 35 36 33 30 29 29 27 27 29 32
64 62 64 64 70 69 67 54 54 51 41 45 43 43 45 45 52 53 55 55 56 55 54 53 55 53 48 47 46 44 41 38 39 41 38 36 37 39 39 39 39 35 34 35 33 31 32 31 33
80 76 74 77 75 68 72 53 56 54 53 45 51 40 43 45 49 49 53 54 57 57 57 57 59 56 54 52 49 49 49 46 44 44 44 40 37 36 37 38 38 38 38 38 39 40 40 38 41
73 89 81 77 83 77 69 55 54 57 56 59 61 57 50 48 49 48 49 48 48 54 56 54 56 59 60 56 54 51 53 54 54 52 53 51 49 46 44 42 42 42 42 43 43 42 43 44 45
83 83 87 86 75 89 60 76 55 60 62 63 59 61 63 55 55 53 51 55 51 50 52 55 54 55 56 56 57 57 54 56 57 57 57 57 55 53 49 47 46 49 49 49 49 49 49 49 51
87 89 88 95 97 76 67 87 67 74 71 68 65 62 68 69 64 66 71 63 61 57 59 59 61 60 59 56 56 56 57 58 58 58 58 59 58 57 55 53 53 54 55 56 56 53 52 51 52
101 99 91 97 92 89 86 91 71 79 84 81 72 69 71 71 73 79 77 75 77 74 68 71 61 64 68 66 63 63 63 62 63 64 65 63 62 63 63 62 60 60 61 60 60 59 57 57 57
103 104 100 106 102 101 94 93 93 91 85 83 85 79 83 81 77 82 84 87 84 88 83 78 79 77 71 71 72 75 73 73 70 70 69 68 69 69 68 67 66 64 65 65 66 64 63 62 62
124 117 110 115 117 111 102 104 104 96 98 100 96 91 88 93 94 88 92 94 96 98 95 91 87 86 80 82 79 75 75 76 77 76 73 75 75 72 73 74 73 72 71 69 70 72 71 72 71
144 133 127 127 126 121 118 114 114 106 109 110 109 106 104 102 103 106 106 109 111 106 103 100 96 91 91 88 85 82 80 80 82 80 82 80 81 81 77 79 81 82 81 80 77 73 69 69 71
123 138 140 140 136 128 126 127 122 116 121 122 117 119 117 118 118 117 113 105 106 107 109 105 104 101 99 97 91 91 94 88 91 87 86 85 86 88 86 84 88 88 87 89 87 85 80 76 70
Wind_Direction
284 283 286 281 284 290 294 297 301 300 305 300 296 292 290 291 288 286 287 288 285 286 288 280 264 251 262 264 263 268 272 280 269 260 259 269 275 278 288 287 289 290 303 305 306 302 290 291 297
282 281 281 286 284 284 291 299 304 302 304 299 293 287 286 289 290 291 289 291 286 284 282 279 266 251 256 262 261 263 272 279 261 255 260 272 273 279 284 289 286 292 298 302 304 296 296 297 289
280 277 277 283 281 283 290 297 302 304 304 299 289 282 283 287 289 287 287 288 284 280 280 272 263 256 261 270 269 264 268 264 255 255 259 268 270 276 281 285 282 292 299 299 299 290 296 290 287
277 279 280 277 279 278 289 296 302 300 301 298 296 285 282 282 283 287 287 288 282 281 272 259 258 260 258 263 264 260 268 250 253 252 259 258 266 278 286 279 281 287 296 298 295 287 294 293 296
280 280 279 277 285 281 288 294 300 299 301 298 296 286 281 281 283 287 285 282 282 283 277 261 255 258 255 257 262 262 264 245 250 254 257 255 265 279 280 278 280 284 288 292 291 287 284 283 291
283 281 285 279 284 283 289 293 294 295 299 294 294 285 279 279 284 283 284 280 286 280 271 259 254 260 256 261 263 259 260 243 245 251 250 253 265 279 278 275 277 278 287 289 283 277 273 281 291
277 276 279 280 281 280 286 290 289 293 296 296 294 283 277 279 284 281 278 277 283 271 265 255 255 257 262 259 261 258 254 245 243 247 247 257 267 272 275 273 279 276 281 279 278 269 268 276 275
272 277 274 270 272 276 284 283 285 291 293 296 286 278 278 283 285 281 277 278 272 265 262 259 258 256 260 264 259 251 243 246 240 243 244 255 265 267 268 272 275 275 280 273 275 270 270 276 275
273 273 270 268 273 276 281 284 285 287 293 288 281 277 280 286 281 279 276 273 259 261 259 263 258 256 256 263 256 250 242 241 240 243 243 253 260 261 259 269 275 273 275 263 267 260 269 261 266
275 279 274 274 275 278 280 284 279 291 290 281 287 276 280 282 280 278 275 261 255 261 263 260 255 254 261 260 255 246 242 240 238 239 246 253 254 248 251 261 269 274 276 268 256 255 253 249 252
276 274 273 276 279 280 281 281 286 287 279 288 281 279 284 281 275 272 266 252 257 265 264 257 254 261 255 263 255 234 241 241 236 239 247 251 244 245 246 258 263 263 270 273 273 264 251 256 258
271 276 275 278 278 278 278 281 284 288 273 279 277 284 284 276 274 272 261 251 259 266 266 258 255 254 254 254 245 231 244 242 244 243 239 249 242 245 252 252 258 259 260 266 271 267 264 253 258
276 275 276 278 278 276 277 277 280 276 275 279 271 278 276 273 274 271 266 264 260 263 262 258 254 250 252 248 242 237 234 238 239 242 242 241 246 247 250 261 260 260 264 261 267 266 264 265 263
272 276 280 289 274 269 269 275 279 269 274 273 274 277 278 278 275 275 272 270 272 271 269 265 258 248 243 246 241 239 241 238 239 238 238 241 244 250 250 254 258 257 260 264 265 264 264 265 265
269 277 287 280 267 269 273 279 269 267 266 267 266 270 265 267 268 264 265 270 272 271 270 267 265 261 249 244 247 247 246 248 242 239 240 240 240 242 251 253 255 257 259 260 264 267 263 261 265
268 276 278 267 275 268 269 262 261 261 270 269 272 273 266 260 264 268 268 269 268 269 270 268 262 256 252 246 248 249 248 250 245 246 243 237 239 243 250 252 249 255 261 267 265 264 268 264 270
270 265 269 274 276 270 268 263 258 260 263 265 266 263 261 261 257 258 261 264 267 271 273 274 269 260 255 251 251 250 252 253 251 247 243 236 239 242 246 253 252 261 255 259 255 260 269 265 265
257 266 270 274 270 266 262 259 252 257 254 261 261 255 256 258 259 259 260 262 267 269 271 272 272 269 263 261 254 254 254 255 252 251 251 254 249 247 248 251 255 253 249 258 267 273 268 265 263
259 263 271 272 261 262 261 252 250 251 253 249 253 255 254 257 259 262 264 266 269 271 269 268 271 267 267 259 256 257 257 262 265 267 268 263 251 250 248 247 248 248 256 262 265 264 263 266 260
266 262 262 261 264 258 255 253 256 252 255 252 248 250 250 248 248 252 258 259 258 261 267 269 269 269 265 260 254 256 257 263 267 273 269 260 251 243 239 243 249 249 252 258 261 261 261 258 262
266 265 264 258 258 259 256 242 251 249 252 259 252 251 255 253 249 248 248 251 257 261 265 269 270 268 264 261 259 249 248 255 255 251 250 250 246 250 245 245 244 250 249 251 256 259 256 260 267
264 269 260 258 259 256 261 234 241 247 250 246 255 251 252 257 256 252 251 252 255 258 261 263 266 265 261 258 256 254 249 245 245 241 245 251 254 254 253 251 250 250 250 251 251 256 258 255 257
259 261 263 263 261 256 251 242 225 241 245 250 253 255 254 257 255 258 255 253 255 255 255 257 260 264 264 261 257 254 248 247 249 252 257 260 260 260 258 256 255 252 251 253 256 260 263 260 264
257 257 258 261 265 256 248 257 221 237 240 245 243 249 254 257 251 257 264 260 254 256 258 260 260 262 264 265 262 259 255 250 249 251 253 256 259 260 258 258 257 258 258 258 258 260 264 269 274
263 255 258 260 261 269 257 255 228 239 244 245 237 245 245 251 255 256 254 263 261 257 259 258 254 255 257 260 263 262 258 253 252 250 251 253 254 254 253 253 254 256 257 258 260 262 264 264 269
264 254 255 264 261 266 251 258 251 250 251 252 250 256 257 252 260 264 260 272 267 257 254 261 254 260 256 255 255 255 256 258 257 255 253 252 251 255 257 258 258 258 259 261 261 262 262 264 268
258 255 259 260 260 261 261 259 256 264 259 258 253 255 259 252 256 260 254 268 268 266 258 258 256 258 263 259 258 255 256 256 254 254 254 254 254 256 257 257 258 259 259 259 260 261 263 264 268
257 257 258 259 261 261 262 263 261 257 256 262 264 258 256 255 256 257 258 258 264 266 263 257 257 254 257 253 258 254 258 254 256 257 259 257 257 257 261 261 261 261 261 261 263 264 265 265 266
261 257 256 256 258 259 261 259 258 258 258 261 261 263 261 258 258 257 256 258 259 259 255 260 253 254 252 250 250 253 254 257 252 259 257 258 256 256 260 261 261 264 265 266 265 267 267 272 270
257 257 258 258 257 258 257 257 256 258 260 259 258 262 263 263 264 262 259 254 250 248 250 255 254 252 252 252 252 252 257 256 254 258 255 256 260 259 262 262 261 263 266 268 270 269 268 274 273